| time (UTC) | temp F | wind direction | speed MPH | gust MPH | rain 1hr in | rain 24hr in | rain mn in | humidity % | barometer mb |
| 20260904083507 | 64 | 208 | 1.0 | 5.0 | 0.00 | 0.22 | 0.00 | 94 | 1010.2 |
| 20260904083007 | 64 | 81 | 0.0 | 2.0 | 0.00 | 0.22 | 0.00 | 94 | 1010.2 |
| 20260904082506 | 64 | 80 | 0.0 | 2.0 | 0.00 | 0.22 | 0.00 | 94 | 1010.1 |
| 20260904082006 | 64 | 80 | 0.0 | 2.0 | 0.00 | 0.22 | 0.00 | 94 | 1010.3 |
| 20260904081506 | 64 | 80 | 0.0 | 2.0 | 0.00 | 0.22 | 0.00 | 94 | 1010.3 |
| 20260904081005 | 64 | 80 | 0.0 | 2.0 | 0.00 | 0.22 | 0.00 | 94 | 1010.3 |
| 20260904080505 | 64 | 80 | 0.0 | 3.0 | 0.00 | 0.22 | 0.00 | 94 | 1010.3 |
| 20260904080010 | 64 | 79 | 1.0 | 3.0 | 0.00 | 0.22 | 0.00 | 94 | 1010.2 |
| 20260904075505 | 64 | 81 | 0.0 | 2.0 | 0.00 | 0.22 | 0.00 | 94 | 1010.2 |
| 20260904075004 | 64 | 81 | 0.0 | 1.0 | 0.00 | 0.22 | 0.00 | 94 | 1010.2 |
| 20260904074504 | 64 | 82 | 0.0 | 0.0 | 0.00 | 0.22 | 0.00 | 94 | 1010.2 |
| 20260904074006 | 65 | 81 | 0.0 | 0.0 | 0.00 | 0.22 | 0.00 | 94 | 1010.2 |
| 20260904073504 | 64 | 82 | 0.0 | 0.0 | 0.00 | 0.22 | 0.00 | 94 | 1010.3 |
| 20260904073005 | 64 | 81 | 0.0 | 1.0 | 0.00 | 0.22 | 0.00 | 94 | 1010.3 |
| 20260904072503 | 64 | 81 | 0.0 | 2.0 | 0.00 | 0.22 | 0.00 | 94 | 1010.3 |
| 20260904072002 | 65 | 82 | 0.0 | 0.0 | 0.00 | 0.22 | 0.00 | 93 | 1010.5 |
| 20260904071502 | 65 | 81 | 0.0 | 0.0 | 0.00 | 0.22 | 0.00 | 94 | 1010.5 |
| 20260904071002 | 65 | 81 | 0.0 | 0.0 | 0.00 | 0.22 | 0.00 | 94 | 1010.6 |
| 20260904070502 | 65 | 81 | 0.0 | 0.0 | 0.00 | 0.22 | 0.00 | 94 | 1010.4 |
| 20260904070005 | 64 | 81 | 0.0 | 0.0 | 0.00 | 0.22 | 0.00 | 94 | 1010.5 |
| 20260904065559 | 64 | 81 | 0.0 | 0.0 | 0.00 | 0.22 | 0.00 | 94 | 1010.5 |
| 20260904065059 | 64 | 81 | 0.0 | 0.0 | 0.00 | 0.22 | 0.00 | 94 | 1010.6 |
| 20260904064559 | 64 | 81 | 0.0 | 0.0 | 0.00 | 0.22 | 0.00 | 94 | 1010.7 |
| 20260904064059 | 64 | 82 | 0.0 | 0.0 | 0.00 | 0.22 | 0.00 | 94 | 1010.7 |
| 20260904063559 | 64 | 81 | 0.0 | 0.0 | 0.00 | 0.22 | 0.00 | 94 | 1010.7 |
| 20260904063059 | 64 | 81 | 0.0 | 0.0 | 0.00 | 0.22 | 0.00 | 94 | 1010.7 |
| 20260904062556 | 64 | 81 | 0.0 | 0.0 | 0.00 | 0.22 | 0.00 | 94 | 1010.8 |
| 20260904062056 | 64 | 82 | 0.0 | 0.0 | 0.00 | 0.22 | 0.00 | 94 | 1010.9 |
| 20260904061555 | 64 | 81 | 0.0 | 0.0 | 0.00 | 0.22 | 0.00 | 94 | 1011.0 |
| 20260904061056 | 64 | 81 | 0.0 | 0.0 | 0.00 | 0.22 | 0.00 | 94 | 1011.1 |
| 20260904060554 | 64 | 81 | 0.0 | 0.0 | 0.00 | 0.22 | 0.00 | 94 | 1011.1 |
| 20260904060054 | 64 | 81 | 0.0 | 1.0 | 0.00 | 0.22 | 0.00 | 93 | 1011.3 |
| 20260904055553 | 64 | 81 | 0.0 | 0.0 | 0.00 | 0.22 | 0.00 | 93 | 1011.3 |
| 20260904055053 | 64 | 81 | 0.0 | 0.0 | 0.00 | 0.22 | 0.00 | 93 | 1011.2 |
| 20260904054553 | 64 | 82 | 0.0 | 0.0 | 0.00 | 0.22 | 0.00 | 93 | 1011.3 |
| 20260904054053 | 64 | 81 | 0.0 | 0.0 | 0.00 | 0.22 | 0.00 | 93 | 1011.4 |
| 20260904053552 | 64 | 82 | 0.0 | 1.0 | 0.00 | 0.22 | 0.00 | 93 | 1011.5 |
| 20260904053051 | 64 | 82 | 0.0 | 1.0 | 0.00 | 0.22 | 0.00 | 93 | 1011.5 |
| 20260904052550 | 64 | 82 | 0.0 | 0.0 | 0.00 | 0.22 | 0.00 | 93 | 1011.6 |
| 20260904052050 | 64 | 81 | 0.0 | 0.0 | 0.00 | 0.22 | 0.00 | 93 | 1011.7 |
| 20260904051549 | 64 | 81 | 0.0 | 0.0 | 0.00 | 0.22 | 0.00 | 93 | 1011.8 |
| 20260904051049 | 64 | 81 | 0.0 | 1.0 | 0.00 | 0.22 | 0.00 | 93 | 1011.7 |
| 20260904050548 | 64 | 81 | 0.0 | 1.0 | 0.00 | 0.22 | 0.00 | 93 | 1011.7 |
| 20260904050048 | 64 | 82 | 0.0 | 1.0 | 0.00 | 0.22 | 0.00 | 93 | 1011.7 |
| 20260904045548 | 64 | 81 | 0.0 | 1.0 | 0.00 | 0.22 | 0.00 | 93 | 1011.6 |
| 20260904045048 | 64 | 81 | 0.0 | 2.0 | 0.00 | 0.22 | 0.00 | 93 | 1011.6 |
| 20260904044555 | 64 | 81 | 0.0 | 2.0 | 0.00 | 0.22 | 0.00 | 93 | 1011.6 |
| 20260904044046 | 64 | 81 | 0.0 | 1.0 | 0.00 | 0.22 | 0.00 | 93 | 1011.7 |
| 20260904043545 | 64 | 81 | 0.0 | 1.0 | 0.00 | 0.22 | 0.00 | 93 | 1011.7 |
| 20260904043101 | 64 | 81 | 0.0 | 2.0 | 0.00 | 0.22 | 0.00 | 93 | 1011.9 |
| 20260904042544 | 64 | 82 | 0.0 | 2.0 | 0.00 | 0.22 | 0.00 | 93 | 1011.9 |
| 20260904042047 | 64 | 80 | 0.0 | 2.0 | 0.00 | 0.22 | 0.00 | 93 | 1011.9 |
| 20260904041542 | 64 | 80 | 0.0 | 2.0 | 0.00 | 0.22 | 0.00 | 93 | 1012.0 |
| 20260904041042 | 64 | 80 | 0.0 | 2.0 | 0.00 | 0.22 | 0.00 | 93 | 1012.0 |
| 20260904040541 | 64 | 80 | 0.0 | 2.0 | 0.00 | 0.22 | 0.00 | 93 | 1012.1 |
| 20260904040041 | 64 | 80 | 0.0 | 2.0 | 0.00 | 0.22 | 0.00 | 93 | 1012.1 |
| 20260904035542 | 64 | 80 | 0.0 | 4.0 | 0.00 | 0.22 | 0.22 | 93 | 1012.1 |
| 20260904035040 | 64 | 80 | 1.0 | 4.0 | 0.00 | 0.22 | 0.22 | 93 | 1012.3 |
| 20260904034541 | 64 | 80 | 0.0 | 4.0 | 0.00 | 0.22 | 0.22 | 93 | 1012.2 |
| 20260904034040 | 64 | 80 | 1.0 | 4.0 | 0.00 | 0.22 | 0.22 | 93 | 1012.2 |
| 20260904033541 | 64 | 80 | 1.0 | 3.0 | 0.00 | 0.22 | 0.22 | 93 | 1012.2 |
| 20260904033040 | 64 | 80 | 0.0 | 2.0 | 0.00 | 0.22 | 0.22 | 93 | 1012.2 |
| 20260904032544 | 64 | 80 | 1.0 | 3.0 | 0.00 | 0.22 | 0.22 | 93 | 1012.4 |
| 20260904032042 | 64 | 80 | 0.0 | 4.0 | 0.00 | 0.22 | 0.22 | 93 | 1012.5 |
| 20260904031539 | 64 | 80 | 0.0 | 4.0 | 0.00 | 0.22 | 0.22 | 93 | 1012.4 |
| 20260904031041 | 64 | 83 | 1.0 | 3.0 | 0.00 | 0.22 | 0.22 | 93 | 1012.5 |
| 20260904030539 | 64 | 84 | 1.0 | 3.0 | 0.00 | 0.22 | 0.22 | 93 | 1012.5 |
| 20260904030039 | 64 | 84 | 0.0 | 3.0 | 0.00 | 0.22 | 0.22 | 93 | 1012.5 |
| 20260904025539 | 64 | 83 | 1.0 | 3.0 | 0.00 | 0.22 | 0.22 | 92 | 1012.2 |
| 20260904025039 | 64 | 89 | 1.0 | 6.0 | 0.00 | 0.22 | 0.22 | 92 | 1012.4 |
| 20260904024539 | 64 | 89 | 2.0 | 6.0 | 0.00 | 0.22 | 0.22 | 92 | 1012.3 |
| 20260904024041 | 65 | 107 | 2.0 | 6.0 | 0.00 | 0.22 | 0.22 | 92 | 1012.6 |
| 20260904023538 | 65 | 32 | 0.0 | 4.0 | 0.00 | 0.22 | 0.22 | 93 | 1012.8 |
| 20260904023039 | 65 | 76 | 0.0 | 4.0 | 0.00 | 0.22 | 0.22 | 93 | 1012.6 |
| 20260904022538 | 65 | 76 | 2.0 | 4.0 | 0.00 | 0.22 | 0.22 | 92 | 1012.2 |
| 20260904022038 | 65 | 77 | 1.0 | 4.0 | 0.00 | 0.22 | 0.22 | 92 | 1012.3 |
| 20260904021539 | 65 | 77 | 0.0 | 3.0 | 0.00 | 0.22 | 0.22 | 92 | 1012.3 |
| 20260904021038 | 65 | 77 | 0.0 | 3.0 | 0.00 | 0.22 | 0.22 | 92 | 1012.3 |
| 20260904020538 | 65 | 77 | 0.0 | 4.0 | 0.00 | 0.22 | 0.22 | 92 | 1012.3 |
| 20260904020038 | 65 | 77 | 0.0 | 4.0 | 0.00 | 0.22 | 0.22 | 92 | 1012.4 |
| 20260904015537 | 65 | 77 | 1.0 | 3.0 | 0.00 | 0.22 | 0.22 | 92 | 1012.5 |
| 20260904015041 | 65 | 77 | 1.0 | 3.0 | 0.00 | 0.22 | 0.22 | 92 | 1012.5 |
| 20260904014544 | 65 | 77 | 0.0 | 3.0 | 0.00 | 0.22 | 0.22 | 92 | 1012.5 |
| 20260904014037 | 65 | 77 | 1.0 | 3.0 | 0.00 | 0.22 | 0.22 | 92 | 1012.7 |
| 20260904013538 | 65 | 77 | 0.0 | 4.0 | 0.00 | 0.22 | 0.22 | 92 | 1012.7 |
| 20260904013043 | 65 | 77 | 1.0 | 4.0 | 0.00 | 0.22 | 0.22 | 92 | 1012.7 |
| 20260904012536 | 66 | 78 | 0.0 | 6.0 | 0.00 | 0.22 | 0.22 | 92 | 1012.8 |
| 20260904012036 | 66 | 77 | 2.0 | 6.0 | 0.00 | 0.22 | 0.22 | 92 | 1012.8 |
| 20260904011536 | 66 | 84 | 1.0 | 4.0 | 0.00 | 0.22 | 0.22 | 92 | 1012.7 |
| 20260904011040 | 66 | 85 | 2.0 | 5.0 | 0.00 | 0.22 | 0.22 | 92 | 1012.7 |
| 20260904010536 | 66 | 73 | 1.0 | 5.0 | 0.00 | 0.22 | 0.22 | 91 | 1012.6 |
| 20260904010036 | 66 | 60 | 1.0 | 3.0 | 0.00 | 0.22 | 0.22 | 91 | 1012.7 |
| 20260904005538 | 66 | 61 | 1.0 | 3.0 | 0.00 | 0.22 | 0.22 | 91 | 1012.5 |
| 20260904005035 | 66 | 61 | 2.0 | 4.0 | 0.00 | 0.22 | 0.22 | 91 | 1012.5 |
| 20260904004536 | 67 | 61 | 1.0 | 3.0 | 0.00 | 0.22 | 0.22 | 91 | 1012.5 |
| 20260904004039 | 67 | 62 | 1.0 | 3.0 | 0.00 | 0.22 | 0.22 | 91 | 1012.5 |
| 20260904003539 | 67 | 61 | 1.0 | 3.0 | 0.00 | 0.22 | 0.22 | 91 | 1012.6 |
| 20260904003039 | 67 | 61 | 1.0 | 3.0 | 0.00 | 0.22 | 0.22 | 91 | 1012.4 |
| 20260904002535 | 67 | 61 | 0.0 | 3.0 | 0.00 | 0.22 | 0.22 | 90 | 1012.4 |
| 20260904002035 | 67 | 61 | 1.0 | 5.0 | 0.00 | 0.22 | 0.22 | 91 | 1012.4 |
| 20260904001535 | 67 | 61 | 1.0 | 5.0 | 0.00 | 0.22 | 0.22 | 90 | 1012.2 |
| 20260904001034 | 68 | 61 | 2.0 | 4.0 | 0.00 | 0.22 | 0.22 | 90 | 1012.1 |
| 20260904000537 | 68 | 60 | 1.0 | 4.0 | 0.00 | 0.22 | 0.22 | 90 | 1012.1 |
| 20260904000034 | 68 | 60 | 0.0 | 0.0 | 0.00 | 0.22 | 0.22 | 90 | 1012.2 |
| 20260903235535 | 68 | 60 | 0.0 | 0.0 | 0.00 | 0.22 | 0.22 | 90 | 1012.2 |
| 20260903235034 | 68 | 60 | 0.0 | 0.0 | 0.00 | 0.22 | 0.22 | 89 | 1012.3 |
| 20260903234534 | 69 | 60 | 0.0 | 0.0 | 0.00 | 0.22 | 0.22 | 89 | 1012.2 |
| 20260903234035 | 69 | 60 | 0.0 | 0.0 | 0.00 | 0.22 | 0.22 | 89 | 1012.0 |
| 20260903233535 | 69 | 61 | 0.0 | 0.0 | 0.00 | 0.22 | 0.22 | 89 | 1012.0 |
| 20260903233038 | 69 | 60 | 0.0 | 0.0 | 0.00 | 0.22 | 0.22 | 89 | 1012.0 |
| 20260903232535 | 70 | 61 | 0.0 | 0.0 | 0.00 | 0.22 | 0.22 | 88 | 1012.0 |
| 20260903232035 | 70 | 60 | 0.0 | 0.0 | 0.00 | 0.22 | 0.22 | 89 | 1012.3 |
| 20260903231533 | 70 | 60 | 0.0 | 0.0 | 0.00 | 0.22 | 0.22 | 88 | 1012.4 |
| 20260903231032 | 71 | 60 | 0.0 | 0.0 | 0.00 | 0.22 | 0.22 | 88 | 1012.3 |
| 20260903230532 | 71 | 60 | 0.0 | 0.0 | 0.00 | 0.22 | 0.22 | 88 | 1012.3 |
| 20260903230034 | 71 | 61 | 0.0 | 0.0 | 0.00 | 0.22 | 0.22 | 88 | 1012.2 |
| 20260903225532 | 71 | 60 | 0.0 | 0.0 | 0.00 | 0.22 | 0.22 | 88 | 1012.0 |
| 20260903225033 | 71 | 60 | 0.0 | 0.0 | 0.00 | 0.22 | 0.22 | 87 | 1012.0 |
| 20260903224531 | 72 | 60 | 0.0 | 0.0 | 0.00 | 0.22 | 0.22 | 87 | 1011.9 |
| 20260903224030 | 72 | 60 | 0.0 | 0.0 | 0.00 | 0.22 | 0.22 | 87 | 1012.0 |
| 20260903223530 | 72 | 60 | 0.0 | 0.0 | 0.00 | 0.22 | 0.22 | 86 | 1012.3 |
| 20260903223032 | 73 | 60 | 0.0 | 0.0 | 0.00 | 0.22 | 0.22 | 87 | 1012.3 |
| 20260903222529 | 73 | 60 | 0.0 | 0.0 | 0.00 | 0.22 | 0.22 | 87 | 1012.4 |
| 20260903222029 | 72 | 60 | 0.0 | 0.0 | 0.00 | 0.22 | 0.22 | 87 | 1012.5 |
| 20260903221529 | 73 | 60 | 0.0 | 0.0 | 0.00 | 0.22 | 0.22 | 86 | 1012.6 |
| 20260903221028 | 73 | 60 | 0.0 | 0.0 | 0.00 | 0.22 | 0.22 | 86 | 1012.5 |
| 20260903220528 | 73 | 60 | 0.0 | 0.0 | 0.00 | 0.22 | 0.22 | 85 | 1012.4 |
| 20260903220034 | 73 | 60 | 0.0 | 0.0 | 0.00 | 0.22 | 0.22 | 85 | 1012.4 |
| 20260903215527 | 73 | 60 | 0.0 | 2.0 | 0.00 | 0.22 | 0.22 | 85 | 1012.5 |
| 20260903215028 | 73 | 60 | 0.0 | 2.0 | 0.00 | 0.22 | 0.22 | 85 | 1012.4 |
| 20260903214530 | 73 | 60 | 0.0 | 2.0 | 0.00 | 0.22 | 0.22 | 85 | 1012.4 |
| 20260903214026 | 73 | 61 | 0.0 | 3.0 | 0.00 | 0.22 | 0.22 | 84 | 1012.4 |
| 20260903213528 | 73 | 60 | 1.0 | 3.0 | 0.00 | 0.22 | 0.22 | 84 | 1012.5 |
| 20260903213027 | 73 | 60 | 0.0 | 5.0 | 0.00 | 0.22 | 0.22 | 84 | 1012.3 |
| 20260903212525 | 73 | 60 | 2.0 | 6.0 | 0.00 | 0.22 | 0.22 | 83 | 1012.4 |
| 20260903212025 | 74 | 89 | 2.0 | 7.0 | 0.00 | 0.22 | 0.22 | 83 | 1012.3 |
| 20260903211525 | 75 | 92 | 2.0 | 7.0 | 0.00 | 0.22 | 0.22 | 82 | 1012.2 |
| 20260903211024 | 75 | 116 | 0.0 | 4.0 | 0.00 | 0.22 | 0.22 | 82 | 1012.4 |
| 20260903210524 | 75 | 116 | 1.0 | 4.0 | 0.00 | 0.22 | 0.22 | 81 | 1012.4 |
| 20260903210031 | 75 | 123 | 1.0 | 3.0 | 0.00 | 0.22 | 0.22 | 82 | 1012.3 |
| 20260903205524 | 75 | 127 | 1.0 | 3.0 | 0.00 | 0.22 | 0.22 | 81 | 1012.3 |
| 20260903205023 | 75 | 130 | 0.0 | 3.0 | 0.00 | 0.22 | 0.22 | 81 | 1012.3 |
| 20260903204523 | 76 | 193 | 0.0 | 2.0 | 0.00 | 0.22 | 0.22 | 80 | 1012.3 |
| 20260903204023 | 76 | 193 | 0.0 | 2.0 | 0.00 | 0.22 | 0.22 | 79 | 1012.3 |
| 20260903203522 | 75 | 196 | 0.0 | 3.0 | 0.00 | 0.22 | 0.22 | 81 | 1012.3 |
| 20260903203026 | 74 | 196 | 1.0 | 4.0 | 0.00 | 0.22 | 0.22 | 81 | 1012.4 |
| 20260903202521 | 76 | 228 | 1.0 | 3.0 | 0.00 | 0.22 | 0.22 | 80 | 1012.4 |
| 20260903202022 | 76 | 230 | 1.0 | 4.0 | 0.00 | 0.22 | 0.22 | 77 | 1012.5 |
| 20260903201520 | 77 | 233 | 1.0 | 4.0 | 0.00 | 0.22 | 0.22 | 78 | 1012.7 |
| 20260903201021 | 77 | 234 | 1.0 | 3.0 | 0.00 | 0.22 | 0.22 | 78 | 1012.6 |
| 20260903200520 | 76 | 234 | 1.0 | 3.0 | 0.00 | 0.22 | 0.22 | 81 | 1012.5 |
| 20260903200019 | 75 | 224 | 0.0 | 2.0 | 0.00 | 0.22 | 0.22 | 82 | 1012.6 |
| 20260903195520 | 75 | 224 | 0.0 | 2.0 | 0.00 | 0.22 | 0.22 | 81 | 1012.6 |
| 20260903195017 | 75 | 224 | 0.0 | 3.0 | 0.00 | 0.22 | 0.22 | 82 | 1012.7 |
| 20260903194520 | 74 | 224 | 1.0 | 3.0 | 0.00 | 0.22 | 0.22 | 81 | 1012.8 |
| 20260903194016 | 74 | 223 | 2.0 | 4.0 | 0.00 | 0.22 | 0.22 | 80 | 1012.8 |
| 20260903193516 | 74 | 224 | 0.0 | 4.0 | 0.00 | 0.22 | 0.22 | 83 | 1012.9 |
| 20260903193017 | 75 | 224 | 1.0 | 4.0 | 0.00 | 0.22 | 0.22 | 79 | 1012.9 |
| 20260903192515 | 77 | 295 | 2.0 | 4.0 | 0.00 | 0.22 | 0.22 | 80 | 1012.9 |
| 20260903192014 | 75 | 54 | 1.0 | 3.0 | 0.00 | 0.22 | 0.22 | 81 | 1012.7 |
| 20260903191513 | 74 | 54 | 1.0 | 4.0 | 0.00 | 0.22 | 0.22 | 84 | 1012.9 |
| 20260903191011 | 72 | 56 | 1.0 | 4.0 | 0.00 | 0.22 | 0.22 | 84 | 1012.9 |
| 20260903190511 | 71 | 45 | 2.0 | 4.0 | 0.00 | 0.22 | 0.22 | 84 | 1013.1 |
| 20260903190009 | 73 | 330 | 0.0 | 2.0 | 0.00 | 0.22 | 0.22 | 85 | 1013.3 |
| 20260903185507 | 72 | 344 | 0.0 | 1.0 | 0.00 | 0.22 | 0.22 | 87 | 1013.3 |
| 20260903185006 | 71 | 343 | 0.0 | 2.0 | 0.00 | 0.22 | 0.22 | 87 | 1013.4 |
| 20260903184506 | 70 | 344 | 0.0 | 2.0 | 0.00 | 0.22 | 0.22 | 87 | 1013.5 |
| 20260903184006 | 70 | 344 | 0.0 | 2.0 | 0.00 | 0.22 | 0.22 | 87 | 1013.4 |
| 20260903183505 | 70 | 344 | 0.0 | 2.0 | 0.00 | 0.22 | 0.22 | 87 | 1013.4 |
| 20260903183005 | 69 | 344 | 0.0 | 2.0 | 0.00 | 0.22 | 0.22 | 88 | 1013.4 |
| 20260903182504 | 69 | 344 | 0.0 | 3.0 | 0.00 | 0.22 | 0.22 | 87 | 1013.5 |
| 20260903182004 | 69 | 343 | 0.0 | 3.0 | 0.00 | 0.22 | 0.22 | 87 | 1013.5 |
| 20260903181503 | 70 | 343 | 1.0 | 3.0 | 0.00 | 0.22 | 0.22 | 87 | 1013.6 |
| 20260903181003 | 70 | 343 | 1.0 | 3.0 | 0.00 | 0.22 | 0.22 | 87 | 1013.9 |
| 20260903180503 | 70 | 319 | 0.0 | 0.0 | 0.00 | 0.22 | 0.22 | 87 | 1014.0 |
| 20260903180002 | 70 | 319 | 0.0 | 0.0 | 0.00 | 0.22 | 0.22 | 87 | 1014.0 |
| 20260903175502 | 70 | 319 | 0.0 | 1.0 | 0.00 | 0.22 | 0.22 | 87 | 1014.1 |
| 20260903175002 | 70 | 319 | 0.0 | 2.0 | 0.00 | 0.22 | 0.22 | 86 | 1014.1 |
| 20260903174503 | 70 | 319 | 0.0 | 2.0 | 0.00 | 0.22 | 0.22 | 86 | 1014.1 |
| 20260903174003 | 70 | 320 | 0.0 | 2.0 | 0.00 | 0.22 | 0.22 | 87 | 1014.0 |
| 20260903173501 | 70 | 320 | 0.0 | 2.0 | 0.00 | 0.22 | 0.22 | 87 | 1014.0 |
| 20260903173001 | 70 | 320 | 0.0 | 2.0 | 0.00 | 0.22 | 0.22 | 87 | 1014.0 |
| 20260903172600 | 70 | 320 | 0.0 | 4.0 | 0.00 | 0.22 | 0.22 | 87 | 1014.0 |
| 20260903172100 | 70 | 320 | 0.0 | 4.0 | 0.00 | 0.22 | 0.22 | 87 | 1013.9 |
| 20260903171614 | 70 | 299 | 0.0 | 3.0 | 0.00 | 0.22 | 0.22 | 88 | 1013.8 |
| 20260903171058 | 69 | 299 | 1.0 | 4.0 | 0.00 | 0.22 | 0.22 | 88 | 1013.6 |
| 20260903170557 | 69 | 299 | 2.0 | 4.0 | 0.00 | 0.22 | 0.22 | 89 | 1013.7 |
| 20260903170057 | 69 | 308 | 1.0 | 4.0 | 0.00 | 0.22 | 0.22 | 88 | 1013.7 |
| 20260903165558 | 69 | 308 | 0.0 | 4.0 | 0.00 | 0.22 | 0.22 | 89 | 1013.8 |
| 20260903165058 | 69 | 308 | 0.0 | 4.0 | 0.00 | 0.22 | 0.22 | 89 | 1013.8 |
| 20260903164603 | 68 | 308 | 1.0 | 4.0 | 0.00 | 0.22 | 0.22 | 89 | 1013.9 |
| 20260903164054 | 68 | 73 | 1.0 | 4.0 | 0.00 | 0.22 | 0.22 | 90 | 1013.9 |
| 20260903163554 | 68 | 73 | 1.0 | 4.0 | 0.00 | 0.22 | 0.22 | 91 | 1013.9 |
| 20260903163052 | 67 | 68 | 0.0 | 4.0 | 0.00 | 0.22 | 0.22 | 91 | 1013.9 |
| 20260903162551 | 67 | 68 | 0.0 | 4.0 | 0.00 | 0.22 | 0.22 | 91 | 1013.9 |
| 20260903162051 | 67 | 323 | 0.0 | 5.0 | 0.00 | 0.22 | 0.22 | 92 | 1014.0 |
| 20260903161553 | 67 | 4 | 1.0 | 5.0 | 0.00 | 0.22 | 0.22 | 92 | 1013.9 |
| 20260903161049 | 66 | 303 | 1.0 | 4.0 | 0.00 | 0.22 | 0.22 | 91 | 1014.0 |
| 20260903160548 | 66 | 349 | 1.0 | 3.0 | 0.00 | 0.22 | 0.22 | 92 | 1014.0 |
| 20260903160047 | 66 | 46 | 0.0 | 3.0 | 0.00 | 0.22 | 0.22 | 92 | 1013.9 |
| 20260903155550 | 66 | 45 | 0.0 | 2.0 | 0.00 | 0.22 | 0.22 | 92 | 1014.0 |
| 20260903155045 | 66 | 45 | 0.0 | 2.0 | 0.00 | 0.22 | 0.22 | 92 | 1014.1 |
| 20260903154545 | 66 | 46 | 0.0 | 3.0 | 0.00 | 0.22 | 0.22 | 92 | 1014.2 |
| 20260903154046 | 66 | 47 | 0.0 | 3.0 | 0.00 | 0.22 | 0.22 | 92 | 1014.3 |
| 20260903153544 | 66 | 166 | 0.0 | 3.0 | 0.00 | 0.22 | 0.22 | 92 | 1014.5 |
| 20260903153044 | 66 | 159 | 0.0 | 2.0 | 0.00 | 0.22 | 0.22 | 93 | 1014.4 |
| 20260903152542 | 65 | 159 | 0.0 | 3.0 | 0.00 | 0.22 | 0.22 | 93 | 1014.2 |
| 20260903152041 | 65 | 159 | 1.0 | 3.0 | 0.00 | 0.22 | 0.22 | 93 | 1014.4 |
| 20260903151539 | 65 | 149 | 0.0 | 3.0 | 0.00 | 0.22 | 0.22 | 93 | 1014.3 |
| 20260903151041 | 65 | 148 | 0.0 | 2.0 | 0.00 | 0.22 | 0.22 | 93 | 1014.4 |
| 20260903150539 | 65 | 148 | 0.0 | 3.0 | 0.00 | 0.22 | 0.22 | 93 | 1014.4 |
| 20260903150037 | 65 | 148 | 0.0 | 3.0 | 0.00 | 0.22 | 0.22 | 93 | 1014.4 |
| 20260903145537 | 65 | 154 | 0.0 | 2.0 | 0.00 | 0.22 | 0.22 | 93 | 1014.5 |
| 20260903145037 | 65 | 154 | 0.0 | 0.0 | 0.00 | 0.22 | 0.22 | 93 | 1014.6 |
| 20260903144537 | 65 | 154 | 0.0 | 1.0 | 0.00 | 0.22 | 0.22 | 93 | 1014.7 |
| 20260903144041 | 65 | 154 | 0.0 | 1.0 | 0.00 | 0.22 | 0.22 | 93 | 1014.7 |
| 20260903143535 | 65 | 154 | 0.0 | 0.0 | 0.00 | 0.22 | 0.22 | 93 | 1014.7 |
| 20260903143059 | 64 | 154 | 0.0 | 0.0 | 0.00 | 0.22 | 0.22 | 93 | 1014.5 |
| 20260903142534 | 64 | 154 | 0.0 | 0.0 | 0.00 | 0.22 | 0.22 | 93 | 1014.7 |
| 20260903142033 | 64 | 154 | 0.0 | 0.0 | 0.00 | 0.22 | 0.22 | 93 | 1015.0 |
| 20260903141530 | 64 | 154 | 0.0 | 0.0 | 0.00 | 0.22 | 0.22 | 93 | 1015.1 |
| 20260903141031 | 64 | 154 | 0.0 | 0.0 | 0.00 | 0.22 | 0.22 | 93 | 1015.2 |
| 20260903140535 | 64 | 154 | 0.0 | 0.0 | 0.00 | 0.22 | 0.22 | 93 | 1015.3 |
| 20260903140029 | 64 | 153 | 0.0 | 0.0 | 0.00 | 0.22 | 0.22 | 93 | 1015.2 |
| 20260903135528 | 63 | 154 | 0.0 | 0.0 | 0.00 | 0.22 | 0.22 | 93 | 1015.2 |
| 20260903135028 | 63 | 154 | 0.0 | 0.0 | 0.00 | 0.22 | 0.22 | 93 | 1015.1 |
| 20260903134530 | 63 | 154 | 0.0 | 0.0 | 0.00 | 0.22 | 0.22 | 93 | 1015.1 |
| 20260903134027 | 63 | 154 | 0.0 | 0.0 | 0.00 | 0.22 | 0.22 | 93 | 1015.2 |
| 20260903133527 | 63 | 154 | 0.0 | 0.0 | 0.00 | 0.22 | 0.22 | 93 | 1015.1 |
| 20260903133027 | 63 | 154 | 0.0 | 0.0 | 0.00 | 0.22 | 0.22 | 93 | 1015.0 |
| 20260903132525 | 63 | 154 | 0.0 | 0.0 | 0.00 | 0.22 | 0.22 | 93 | 1014.9 |
| 20260903132024 | 63 | 154 | 0.0 | 2.0 | 0.00 | 0.22 | 0.22 | 93 | 1015.1 |
| 20260903131524 | 63 | 154 | 0.0 | 2.0 | 0.00 | 0.22 | 0.22 | 93 | 1015.1 |
| 20260903131023 | 63 | 154 | 0.0 | 2.0 | 0.00 | 0.22 | 0.22 | 93 | 1015.1 |
| 20260903130523 | 63 | 154 | 0.0 | 2.0 | 0.00 | 0.22 | 0.22 | 93 | 1015.1 |
| 20260903130023 | 63 | 154 | 0.0 | 2.0 | 0.00 | 0.22 | 0.22 | 93 | 1015.1 |
| 20260903125523 | 63 | 154 | 0.0 | 2.0 | 0.00 | 0.22 | 0.22 | 93 | 1015.2 |
| 20260903125022 | 63 | 154 | 0.0 | 2.0 | 0.00 | 0.22 | 0.22 | 93 | 1015.3 |
| 20260903124523 | 63 | 154 | 0.0 | 2.0 | 0.00 | 0.22 | 0.22 | 93 | 1015.4 |
| 20260903124022 | 63 | 155 | 0.0 | 2.0 | 0.00 | 0.22 | 0.22 | 93 | 1015.4 |
| 20260903123520 | 63 | 156 | 0.0 | 2.0 | 0.00 | 0.22 | 0.22 | 93 | 1015.4 |
| 20260903123021 | 63 | 155 | 0.0 | 1.0 | 0.00 | 0.22 | 0.22 | 93 | 1015.6 |
| 20260903122518 | 62 | 156 | 0.0 | 0.0 | 0.00 | 0.22 | 0.22 | 93 | 1015.7 |
| 20260903122019 | 62 | 155 | 0.0 | 0.0 | 0.00 | 0.22 | 0.22 | 93 | 1015.8 |
| 20260903121526 | 62 | 156 | 0.0 | 0.0 | 0.00 | 0.22 | 0.22 | 93 | 1015.7 |
| 20260903121017 | 62 | 155 | 0.0 | 0.0 | 0.00 | 0.22 | 0.22 | 93 | 1015.8 |
| 20260903120515 | 62 | 155 | 0.0 | 0.0 | 0.00 | 0.22 | 0.22 | 93 | 1015.8 |
| 20260903120015 | 62 | 155 | 0.0 | 0.0 | 0.01 | 0.22 | 0.22 | 93 | 1015.9 |
| 20260903115513 | 62 | 156 | 0.0 | 0.0 | 0.01 | 0.22 | 0.22 | 92 | 1016.0 |
| 20260903115014 | 62 | 156 | 0.0 | 0.0 | 0.03 | 0.22 | 0.22 | 92 | 1016.1 |
| 20260903114513 | 62 | 156 | 0.0 | 0.0 | 0.03 | 0.22 | 0.22 | 92 | 1016.1 |
| 20260903114012 | 62 | 156 | 0.0 | 0.0 | 0.03 | 0.22 | 0.22 | 92 | 1016.1 |
| 20260903113512 | 62 | 156 | 0.0 | 0.0 | 0.04 | 0.22 | 0.22 | 92 | 1016.2 |
| 20260903113024 | 62 | 156 | 0.0 | 0.0 | 0.04 | 0.22 | 0.22 | 92 | 1016.2 |
| 20260903112510 | 62 | 156 | 0.0 | 1.0 | 0.04 | 0.22 | 0.22 | 92 | 1016.1 |
| 20260903112013 | 62 | 156 | 0.0 | 1.0 | 0.05 | 0.22 | 0.22 | 92 | 1016.1 |
| 20260903111514 | 62 | 156 | 0.0 | 1.0 | 0.05 | 0.22 | 0.22 | 92 | 1016.1 |
| 20260903111011 | 62 | 156 | 0.0 | 1.0 | 0.05 | 0.22 | 0.22 | 92 | 1016.2 |
| 20260903110510 | 62 | 154 | 0.0 | 1.0 | 0.05 | 0.22 | 0.22 | 92 | 1016.2 |
| 20260903110010 | 62 | 155 | 0.0 | 1.0 | 0.05 | 0.21 | 0.21 | 92 | 1016.2 |
| 20260903105509 | 61 | 156 | 0.0 | 1.0 | 0.08 | 0.21 | 0.21 | 92 | 1016.3 |
| 20260903105009 | 62 | 156 | 0.0 | 1.0 | 0.08 | 0.19 | 0.19 | 92 | 1016.3 |
| 20260903104508 | 62 | 156 | 0.0 | 1.0 | 0.09 | 0.19 | 0.19 | 92 | 1016.0 |
| 20260903104007 | 61 | 155 | 0.0 | 1.0 | 0.08 | 0.18 | 0.18 | 92 | 1016.2 |
| 20260903103507 | 61 | 155 | 0.0 | 1.0 | 0.09 | 0.18 | 0.18 | 92 | 1016.1 |
| 20260903103007 | 61 | 155 | 0.0 | 3.0 | 0.09 | 0.18 | 0.18 | 92 | 1016.1 |
| 20260903102506 | 61 | 156 | 1.0 | 3.0 | 0.09 | 0.18 | 0.18 | 92 | 1016.1 |
| 20260903102007 | 61 | 158 | 0.0 | 0.0 | 0.08 | 0.17 | 0.17 | 92 | 1016.1 |
| 20260903101506 | 61 | 158 | 0.0 | 0.0 | 0.09 | 0.17 | 0.17 | 91 | 1016.0 |
| 20260903101007 | 62 | 158 | 0.0 | 0.0 | 0.10 | 0.17 | 0.17 | 91 | 1016.0 |
| 20260903100507 | 62 | 158 | 0.0 | 0.0 | 0.09 | 0.16 | 0.16 | 91 | 1016.1 |
| 20260903100005 | 62 | 213 | 0.0 | 0.0 | 0.10 | 0.16 | 0.16 | 91 | 1016.3 |
| 20260903095505 | 62 | 212 | 0.0 | 0.0 | 0.06 | 0.12 | 0.12 | 91 | 1016.4 |
| 20260903095009 | 62 | 213 | 0.0 | 0.0 | 0.05 | 0.11 | 0.11 | 91 | 1016.2 |
| 20260903094505 | 62 | 214 | 0.0 | 0.0 | 0.04 | 0.10 | 0.10 | 91 | 1016.4 |
| 20260903094007 | 62 | 212 | 0.0 | 0.0 | 0.04 | 0.10 | 0.10 | 91 | 1016.2 |
| 20260903093505 | 62 | 213 | 0.0 | 1.0 | 0.03 | 0.09 | 0.09 | 91 | 1016.3 |
| 20260903093009 | 62 | 213 | 0.0 | 1.0 | 0.05 | 0.09 | 0.09 | 91 | 1016.4 |
| 20260903092504 | 62 | 212 | 0.0 | 1.0 | 0.08 | 0.09 | 0.09 | 91 | 1016.4 |
| 20260903092004 | 62 | 212 | 0.0 | 1.0 | 0.08 | 0.08 | 0.08 | 90 | 1016.4 |
| 20260903091515 | 62 | 213 | 0.0 | 2.0 | 0.08 | 0.08 | 0.08 | 90 | 1016.4 |
| 20260903091003 | 62 | 214 | 0.0 | 3.0 | 0.07 | 0.07 | 0.07 | 90 | 1016.5 |
| 20260903090503 | 62 | 213 | 0.0 | 3.0 | 0.07 | 0.07 | 0.07 | 90 | 1016.6 |
| 20260903090002 | 62 | 212 | 0.0 | 2.0 | 0.06 | 0.06 | 0.06 | 90 | 1016.6 |
| 20260903085502 | 62 | 213 | 0.0 | 2.0 | 0.06 | 0.06 | 0.06 | 90 | 1016.5 |
| 20260903085001 | 62 | 212 | 0.0 | 2.0 | 0.06 | 0.06 | 0.06 | 89 | 1016.5 |
| 20260903084502 | 62 | 214 | 0.0 | 3.0 | 0.06 | 0.06 | 0.06 | 89 | 1016.5 |
| 20260903084001 | 63 | 212 | 1.0 | 3.0 | 0.06 | 0.06 | 0.06 | 89 | 1016.4 |